星链-32629 (STARLINK-32629)

导读

STARLINK-32629是美国SpaceX公司星链星座的第二代卫星,于2024年11月30日由猎鹰9火箭发射入轨。作为全球低轨互联网星座的组成部分,它运行在近地轨道,配备增强型相控阵天线与激光星间链路,可为全球用户提供高速低延迟的宽带互联网服务,助力星链实现全球覆盖,支撑民用通信、移动互联等多场景应用,是SpaceX加速第二代星链部署的典型节点卫星。

基本信息
目录编号:
62150
目录名称:
STARLINK-32629
国际标识:
2024-224M
轨道中心:
EARTH
卫星名称:
星链-32629
卫星全名:
星链-32629 (STARLINK-32629)
卫星状态:
在轨 (已飞行564 天)
发射日期:
2024-11-30 UTC
国别 :
美国 (US)
星等 :
--
轨道信息
数据来源 国际轨道数据 AOE轨道数据
星历时间 2026-06-16T11:43:49+0800
1天前
查看轨道信息
2026-06-17T01:00:00+0800
1天前
查看轨道信息
半长轴 6861.167km 6861.215km
偏心率 0.0001839 0.0001152
轨道倾角 43.001° 43.005°
近地点辐角 275.747° 243.746°
升交点赤经 321.633° 318.505°
平近点角 84.317° 280.433°
近地点 481.768km 482.287km
远地点 484.292km 483.869km
周期 94.266分钟 94.267分钟
每日圈数 15.275864 15.275704
详细信息
固有亮度:
5
最大亮度:
2.5
卫星平台:
Starlink V1.0
覆盖范围:
全球
运营商:
太空探索技术公司
运营商所在国:
美国
制造商(研发单位):
太空探索技术公司
制造商所在国:
美国
使用方式:
暂无
卫星简介
Starlink 计划是 SpaceX 推出的全球卫星互联网项目,通过发射低轨道卫星,为全球尤其是偏远地区提供高速、低延迟的互联网服务。自 2019 年起,Starlink 已部署数千颗卫星,旨在缩小全球数字鸿沟,推动互联网普及。该项目还为军事、航空等行业提供通信支持,带来广泛经济效益。
2D轨道图
3D轨道图
轨道高度分析图
轨道倾角分析图
轨道综合分析图
查看轨道综合分析图